Regional Weather Roundup
Issued by NWS Cleveland, OH

Home | Current Version | Previous Version | Graphics & Text | Print | Product List | Glossary On
Versions: 1 2 3 4 5 6 7 8 9 10 11 12 13 14 15 16 17 18 19 20 21 22 23 24 25 26 27 28 29 30 31 32 33 34 35 36 37 38 39 40 41 42 43 44 45 46 47 48 49 50
000
ASUS41 KCLE 280710
RWRCLE
OHIO REGIONAL WEATHER ROUNDUP
NATIONAL WEATHER SERVICE CLEVELAND, OH
300 AM EDT FRI AUG 28 2015

NOTE: "FAIR" INDICATES FEW OR NO CLOUDS BELOW 12,000 FEET WITH NO
SIGNIFICANT WEATHER AND/OR OBSTRUCTIONS TO VISIBILITY.

OHZ001>008-015>018-024>027-034-035-043-044-280800-
   NORTHWEST OHIO

CITY           SKY/WX    TMP DP  RH WIND       PRES   REMARKS
DEFIANCE       CLEAR     55  53  93 N3        30.17S
FINDLAY        CLEAR     57  54  89 SE5       30.15F
TOLEDO EXPRESS CLEAR     53  53 100 CALM      30.16F
TOLEDO EXEC    CLEAR     57  53  86 CALM      30.17F
LIMA           CLEAR     56  54  93 E6        30.16S
$$

OHZ009>014-019>023-028>033-038-089-280800-
   NORTHEAST OHIO

CITY           SKY/WX    TMP DP  RH WIND       PRES   REMARKS
CLE-HOPKINS    CLEAR     55  52  89 CALM      30.19F
CLE-LAKEFRONT  CLEAR     59  54  83 S8        30.16F
CUY CO. ARPT   NOT AVBL
LORAIN-ELYRIA  FOG       51  50  96 CALM      30.17F VSB 1/2
ASHTABULA      CLEAR     50  50 100 CALM      30.18F FOG
AKRON-CANTON   CLEAR     57  52  83 E3        30.18F
WOOSTER        CLEAR     49  47  93 CALM      30.18F
MANSFIELD      CLEAR     54  54 100 SE5       30.18S
YOUNGSTOWN     CLEAR     52  51  97 E3        30.18F
$$

OHZ042-051>053-060>062-070>072-077>081-280800-
  SOUTHWEST OHIO

CITY           SKY/WX    TMP DP  RH WIND       PRES   REMARKS
CINC-COVINGTON PTCLDY    59  56  89 CALM      30.14F
CINC-LUNKEN    PTCLDY    55  55 100 NE3       30.15S FOG
HAMILTON       CLEAR     53  52  96 CALM      30.16S
DAYTON         CLEAR     59  56  89 E5        30.16S
WRIGHT-PAT AFB CLEAR     60  57  89 CALM      30.15S
DAYTON GENERAL CLEAR     57  54  89 E3        30.14F
WILMINGTON     CLEAR     53  50  89 CALM      30.15F
$$

OHZ036-037-039>041-045>050-054>059-063>069-073>076-082>088-280800-
  CENTRAL AND SOUTHEAST OHIO

CITY           SKY/WX    TMP DP  RH WIND       PRES   REMARKS
COLUMBUS       CLEAR     59  55  87 CALM      30.15S
OSU AIRPORT    CLEAR     57  55  93 E6        30.16S
BOLTON FIELD   CLEAR     55  54  99 CALM      30.16S
RICKENBACK AFB CLEAR     55  53  94 NE5       30.15S
NEWARK         CLEAR     53  52  96 CALM      30.16S
MARION         CLEAR     54  51  90 CALM      30.17S
LANCASTER      CLEAR     51  49  92 CALM      30.16S
ZANESVILLE     CLEAR     56  53  90 CALM      30.16F
NEW PHILLY     CLEAR     52  51  97 CALM      30.17F
$$


USA.gov is the U.S. government's official web portal to all federal, state and local government web resources and services.